Weather reports worldwide

Advertisment
Ölands Södra Udde, Sweden (2644): temperature & dewpoint: 06.12.2019 17:00:00 - 12.12.2019 17:00:00 (CET)Ölands Södra Udde, Sweden (2644): wind speed & gusts: 06.12.2019 17:00:00 - 12.12.2019 17:00:00 (CET)Ölands Södra Udde, Sweden (2644): wind direction: 06.12.2019 17:00:00 - 12.12.2019 17:00:00 (CET)Ölands Södra Udde, Sweden (2644): reduced air pressure: 06.12.2019 17:00:00 - 12.12.2019 17:00:00 (CET)Ölands Södra Udde, Sweden (2644): visibility: 06.12.2019 17:00:00 - 12.12.2019 17:00:00 (CET)Ölands Södra Udde, Sweden (2644): precipitation: 06.12.2019 17:00:00 - 12.12.2019 17:00:00 (CET)
Date & Time tt [°C] td [°C] ff [km/h] ff [kn] fx [km/h] fx [kn] dd ppp [hPa] vv [km] rr [mm]
12.12.2019 17:00:00 - - - - - - - - - -
12.12.2019 16:00:00 4,6 1,8 17 9 38 20 SW 997,9 50 0,0
12.12.2019 15:00:00 4,5 2,4 21 12 31 17 SSW 998,0 31 0,0
12.12.2019 14:00:00 3,9 1,9 25 14 32 17 SSW 998,1 14 0,0
12.12.2019 13:00:00 3,5 1,4 25 14 34 18 S 998,6 11 0,0
12.12.2019 12:00:00 3,7 1,2 28 15 34 19 S 999,2 11 0,0
12.12.2019 11:00:00 3,6 0,8 29 16 35 19 S 999,9 12 0,0
12.12.2019 10:00:00 3,7 1,0 26 14 33 18 S 1000,6 12 0,0
12.12.2019 09:00:00 3,7 1,2 29 15 36 19 S 1000,7 12 0,0
12.12.2019 08:00:00 3,8 1,5 29 15 39 21 S 1000,8 11 0,0
12.12.2019 07:00:00 4,0 1,9 33 18 40 21 S 1001,2 10 0,0
12.12.2019 06:00:00 4,3 2,0 32 17 37 20 S 1001,6 12 0,0
12.12.2019 05:00:00 4,7 1,9 28 15 41 22 S 1002,1 16 0,0
12.12.2019 04:00:00 4,8 2,0 34 19 42 23 S 1002,6 17 0,0
12.12.2019 03:00:00 4,9 2,8 27 15 36 20 SSW 1003,1 18 0,0
12.12.2019 02:00:00 4,3 2,8 29 16 38 20 SSW 1003,8 9 0,0
12.12.2019 01:00:00 4,1 2,8 32 17 40 22 SSW 1004,4 8 0,3
12.12.2019 00:00:00 4,3 3,0 32 17 40 22 SSW 1004,8 19 0,6
11.12.2019 23:00:00 4,4 3,1 27 14 35 19 SSW 1005,3 14 0,5
11.12.2019 22:00:00 4,3 2,9 30 16 36 19 SSW 1005,7 12 0,7
11.12.2019 21:00:00 4,4 3,1 27 15 38 20 SSW 1006,1 11 0,9
11.12.2019 20:00:00 4,5 3,3 32 17 40 22 SSW 1006,2 11 0,7
11.12.2019 19:00:00 4,8 3,5 32 17 41 22 SSW 1006,6 15 0,6
11.12.2019 18:00:00 4,8 3,3 24 13 35 19 SSW 1006,9 17 1,0
11.12.2019 17:00:00 4,9 3,4 23 13 36 19 SSW 1007,1 15 0,6
11.12.2019 16:00:00 5,0 3,9 28 15 40 22 SSW 1007,2 15 0,3
11.12.2019 15:00:00 5,1 4,1 27 15 41 22 SSW 1007,4 11 0,3
11.12.2019 14:00:00 5,1 4,1 31 17 45 24 SSW 1007,6 6 0,1
11.12.2019 13:00:00 5,2 4,2 32 17 45 24 SSW 1007,9 8 0,2
11.12.2019 12:00:00 5,2 3,9 33 18 49 26 SSW 1008,0 7 0,2
11.12.2019 11:00:00 5,3 3,8 32 17 48 26 SW 1008,5 9 0,1
11.12.2019 10:00:00 5,6 3,0 35 19 60 32 SSW 1008,5 13 0,0
11.12.2019 09:00:00 5,7 2,5 42 23 69 37 SSW 1008,4 17 0,0
11.12.2019 08:00:00 5,5 2,3 55 30 71 38 SSW 1007,9 15 0,1
11.12.2019 07:00:00 5,7 2,2 55 30 72 39 SSW 1008,7 14 0,0
11.12.2019 06:00:00 5,8 1,7 57 31 71 38 SSW 1009,7 20 0,0
11.12.2019 05:00:00 5,9 0,8 55 30 74 40 SSW 1010,4 24 0,0
11.12.2019 04:00:00 5,8 1,7 49 27 63 34 SSW 1011,6 23 0,0
11.12.2019 03:00:00 5,7 2,0 48 26 63 34 SSW 1012,8 21 0,0
11.12.2019 02:00:00 5,6 1,9 49 26 61 33 SSW 1013,8 26 0,0
11.12.2019 01:00:00 5,4 1,7 45 25 57 31 SSW 1014,6 30 0,0
11.12.2019 00:00:00 5,3 1,0 43 23 53 28 SSW 1015,8 50 0,0
10.12.2019 23:00:00 5,0 0,4 37 20 50 27 SSW 1016,6 50 0,0
10.12.2019 22:00:00 4,5 -0,6 35 19 44 24 S 1017,6 50 0,0
10.12.2019 21:00:00 4,0 -3,1 30 16 37 20 S 1018,3 50 0,0
10.12.2019 20:00:00 3,4 -3,0 19 10 23 13 SSW 1018,8 50 0,0
10.12.2019 19:00:00 2,5 -3,0 10 5 16 8 SW 1019,5 50 0,0
10.12.2019 18:00:00 1,8 -4,1 6 3 14 8 WSW 1019,6 49 0,0
10.12.2019 17:00:00 1,8 -3,7 11 6 21 11 W 1019,6 50 0,0
10.12.2019 16:00:00 1,9 -3,9 17 9 23 13 WNW 1019,3 50 0,0
10.12.2019 15:00:00 1,9 -4,0 20 11 29 16 WNW 1019,0 50 0,0
10.12.2019 14:00:00 1,8 -3,5 22 12 31 17 WNW 1018,5 50 0,0
10.12.2019 13:00:00 1,9 -3,6 24 13 40 21 NW 1017,8 50 0,0
10.12.2019 12:00:00 1,6 -3,3 31 17 44 24 NW 1017,1 50 0,0
10.12.2019 11:00:00 1,3 -2,8 34 18 46 25 NW 1016,5 50 0,0
10.12.2019 10:00:00 1,3 -3,8 39 21 50 27 NW 1015,2 50 0,0
10.12.2019 09:00:00 1,3 -2,8 40 21 57 31 NNW 1013,6 50 0,0
10.12.2019 08:00:00 1,3 -3,0 45 25 64 34 NNW 1011,6 50 0,0
10.12.2019 07:00:00 1,3 -2,6 53 29 72 39 NNW 1009,7 50 0,0
10.12.2019 06:00:00 1,6 -2,2 45 25 73 39 N 1007,3 50 0,0
10.12.2019 05:00:00 2,2 -0,1 49 27 72 39 N 1005,2 30 0,1
10.12.2019 04:00:00 1,9 0,9 50 27 70 38 N 1003,0 6 0,3
10.12.2019 03:00:00 2,9 1,1 49 27 73 40 N 1000,5 22 0,0
10.12.2019 02:00:00 5,7 3,2 26 14 39 21 WNW 997,7 50 0,0
10.12.2019 01:00:00 6,0 2,8 27 15 48 26 WSW 996,2 50 0,0
10.12.2019 00:00:00 6,3 2,9 38 21 55 30 WSW 995,5 31 0,0
09.12.2019 23:00:00 6,5 3,3 37 20 54 29 WSW 994,8 16 0,0
09.12.2019 22:00:00 6,7 3,2 40 21 57 31 WSW 994,6 17 0,0
09.12.2019 21:00:00 6,8 4,1 35 19 51 27 WSW 994,3 21 0,0
09.12.2019 20:00:00 6,9 4,7 34 18 55 30 WSW 993,7 24 0,0
09.12.2019 19:00:00 7,3 5,1 44 24 60 33 SW 992,9 26 0,0
09.12.2019 18:00:00 7,5 5,1 37 20 61 33 SW 992,7 19 0,0
09.12.2019 17:00:00 7,5 4,6 38 21 67 36 SW 992,0 21 0,0
09.12.2019 16:00:00 7,7 4,0 45 25 66 36 SW 991,6 24 0,0
09.12.2019 15:00:00 7,3 4,9 39 21 65 35 SW 991,2 17 0,0
09.12.2019 14:00:00 7,3 4,9 36 19 56 31 SW 991,0 16 0,0
09.12.2019 13:00:00 7,0 4,7 36 19 56 30 SW 991,0 20 0,0
09.12.2019 12:00:00 7,4 3,8 38 20 56 30 SW 990,7 24 0,0
09.12.2019 11:00:00 7,4 3,3 41 22 64 34 WSW 990,5 25 0,0
09.12.2019 10:00:00 7,4 4,4 41 22 59 32 SW 990,3 21 0,0
09.12.2019 09:00:00 7,2 4,5 40 22 61 33 WSW 989,6 17 0,0
09.12.2019 08:00:00 7,1 4,4 43 23 62 33 WSW 988,9 18 0,0
09.12.2019 07:00:00 7,1 4,6 41 22 63 34 WSW 988,3 17 0,0
09.12.2019 06:00:00 7,3 4,9 39 21 64 34 WSW 988,1 16 0,0
09.12.2019 05:00:00 7,2 4,7 44 24 61 33 WSW 987,8 17 0,0
09.12.2019 04:00:00 7,1 4,8 43 23 70 38 WSW 987,6 18 0,8
09.12.2019 03:00:00 7,3 5,1 41 22 72 39 WSW 987,6 16 0,0
09.12.2019 02:00:00 7,1 4,7 43 23 61 33 WSW 987,4 18 0,0
09.12.2019 01:00:00 7,2 4,7 40 21 60 32 WSW 987,2 20 0,0
09.12.2019 00:00:00 7,4 4,7 42 23 66 36 WSW 987,0 20 0,0
08.12.2019 23:00:00 7,6 5,4 43 23 61 33 WSW 986,8 13 0,0
08.12.2019 22:00:00 7,8 6,0 40 22 60 33 WSW 986,6 15 0,0
08.12.2019 21:00:00 7,6 5,4 40 22 59 32 WSW 986,2 21 0,0
08.12.2019 20:00:00 8,1 6,6 41 22 68 37 WSW 985,7 20 0,0
08.12.2019 19:00:00 8,3 7,2 42 23 74 40 WSW 985,5 8 0,1
08.12.2019 18:00:00 8,5 7,3 55 30 74 40 WSW 985,0 21 0,0
08.12.2019 17:00:00 8,0 7,1 44 24 70 38 SW 985,1 14 0,0
08.12.2019 16:00:00 7,8 6,7 43 23 66 36 SW 985,6 11 0,0
08.12.2019 15:00:00 7,6 6,5 39 21 66 36 SW 986,4 17 0,0
08.12.2019 14:00:00 7,3 6,4 36 19 63 34 SW 987,4 6 0,1
08.12.2019 13:00:00 7,1 6,0 37 20 61 33 SW 988,5 9 0,8
08.12.2019 12:00:00 7,1 6,2 35 19 61 33 SW 990,0 6 1,4
08.12.2019 11:00:00 7,2 6,0 37 20 59 32 SW 991,4 8 1,0
08.12.2019 10:00:00 6,9 6,1 38 20 53 29 SW 993,0 5 1,1
08.12.2019 09:00:00 7,1 6,2 31 17 56 31 SW 994,3 8 0,5
08.12.2019 08:00:00 7,3 6,6 40 22 53 29 SW 995,5 8 0,5
08.12.2019 07:00:00 6,7 6,1 30 16 41 22 SSW 996,5 14 0,1
08.12.2019 06:00:00 6,8 5,4 23 12 39 21 SW 997,7 19 0,0
08.12.2019 05:00:00 6,5 4,3 30 16 42 23 WSW 998,8 33 0,0
08.12.2019 04:00:00 6,2 3,7 32 17 46 25 WSW 1000,0 39 0,0
08.12.2019 03:00:00 5,5 3,0 24 13 42 23 W 1000,6 34 0,0
08.12.2019 02:00:00 5,6 2,8 34 18 46 25 W 1000,9 35 0,0
08.12.2019 01:00:00 5,8 2,8 31 17 49 26 W 1000,9 32 0,0
08.12.2019 00:00:00 5,6 2,2 32 17 54 29 W 1000,8 32 0,0
07.12.2019 23:00:00 5,8 2,4 38 20 55 30 W 1000,3 29 0,0
07.12.2019 22:00:00 5,8 2,6 36 19 55 30 W 999,5 29 0,0
07.12.2019 21:00:00 5,8 2,6 33 18 55 30 W 999,1 28 0,0
07.12.2019 20:00:00 5,8 2,8 39 21 55 30 W 998,4 30 0,0
07.12.2019 19:00:00 5,9 2,9 41 22 56 31 W 997,5 32 0,0
07.12.2019 18:00:00 6,2 2,5 31 17 60 33 W 996,6 30 0,0
07.12.2019 17:00:00 6,7 2,6 37 20 56 30 W 995,6 38 0,0
07.12.2019 16:00:00 6,9 2,7 34 18 55 30 W 994,8 36 0,0
07.12.2019 15:00:00 7,0 2,5 44 24 67 36 W 993,6 47 0,0
07.12.2019 14:00:00 7,4 3,1 42 23 61 33 W 992,8 41 0,0
07.12.2019 13:00:00 7,7 5,7 39 21 51 28 W 991,6 38 0,0
07.12.2019 12:00:00 8,0 7,2 32 17 47 25 WSW 990,8 32 0,0
07.12.2019 11:00:00 8,0 7,2 31 17 45 24 WSW 991,0 19 0,0
07.12.2019 10:00:00 7,9 7,1 29 16 40 22 WSW 991,4 19 0,0
07.12.2019 09:00:00 7,7 7,1 30 16 43 23 WSW 991,4 14 0,0
07.12.2019 08:00:00 7,7 7,3 31 17 44 24 WSW 991,4 20 0,1
07.12.2019 07:00:00 7,6 7,3 31 17 45 25 SW 991,4 8 0,1
07.12.2019 06:00:00 7,4 7,1 34 18 47 26 WSW 991,8 3,6 0,1
07.12.2019 05:00:00 7,3 7,0 39 21 51 28 SW 992,3 2,7 0,4
07.12.2019 04:00:00 7,0 6,6 33 18 54 29 SW 992,9 6 0,1
07.12.2019 03:00:00 7,0 6,4 33 18 50 27 SW 993,4 16 0,0
07.12.2019 02:00:00 6,8 6,5 30 16 49 27 SW 994,3 3,3 0,3
07.12.2019 01:00:00 6,7 6,3 32 17 55 30 SW 994,8 3,1 0,1
07.12.2019 00:00:00 6,7 6,0 37 20 56 30 SW 995,5 8 0,0
06.12.2019 23:00:00 6,6 6,2 33 18 49 26 SW 996,0 5 0,0
06.12.2019 22:00:00 6,7 6,3 26 14 49 26 SW 996,6 4,0 0,2
06.12.2019 21:00:00 6,8 6,4 31 17 52 28 SW 997,1 3,8 0,3
06.12.2019 20:00:00 6,9 6,5 37 20 58 31 SW 997,7 3,8 0,0
06.12.2019 19:00:00 7,4 6,5 41 22 64 35 SW 997,5 13 0,0
06.12.2019 18:00:00 7,6 6,7 39 21 54 29 WSW 998,0 17 0,0
06.12.2019 17:00:00 7,8 6,9 39 21 55 30 WSW 998,2 16 0,0

tt = temperature
td = dewpoint
ff = wind speed
fx = gusts
dd = wind direction
ppp = reduced air pressure
vv = visibility
rr = precipitation

Next stations